| time (UTC) | temp F | wind direction | speed MPH | gust MPH | rain 1hr in | rain 24hr in | rain mn in | humidity % | barometer mb |
| 20260831233046 | 88 | 85 | 0.0 | 4.0 | 0.00 | 0.00 | 0.00 | 43 | 1009.2 |
| 20260831231551 | 87 | 58 | 0.0 | 9.0 | 0.00 | 0.00 | 0.00 | 44 | 1009.2 |
| 20260831230016 | 88 | 110 | 2.0 | 8.0 | 0.00 | 0.00 | 0.00 | 43 | 1009.3 |
| 20260831224514 | 88 | 87 | 2.0 | 7.0 | 0.00 | 0.00 | 0.00 | 45 | 1009.4 |
| 20260831223007 | 87 | 81 | 3.0 | 9.0 | 0.00 | 0.00 | 0.00 | 45 | 1009.7 |
| 20260831221516 | 88 | 98 | 3.0 | 10.0 | 0.00 | 0.00 | 0.00 | 45 | 1009.9 |
| 20260831220001 | 88 | 114 | 0.0 | 7.0 | 0.00 | 0.00 | 0.00 | 47 | 1010.3 |
| 20260831214559 | 88 | 60 | 2.0 | 9.0 | 0.00 | 0.00 | 0.00 | 46 | 1010.8 |
| 20260831213055 | 87 | 58 | 3.0 | 6.0 | 0.00 | 0.00 | 0.00 | 48 | 1011.1 |
| 20260831211600 | 86 | 81 | 4.0 | 13.0 | 0.00 | 0.00 | 0.00 | 48 | 1011.4 |
| 20260831210042 | 85 | 52 | 5.0 | 10.0 | 0.00 | 0.00 | 0.00 | 54 | 1011.8 |
| 20260831204540 | 84 | 68 | 4.0 | 9.0 | 0.00 | 0.00 | 0.00 | 57 | 1012.0 |
| 20260831203041 | 84 | 42 | 3.0 | 9.0 | 0.00 | 0.00 | 0.00 | 59 | 1012.1 |
| 20260831201535 | 82 | 133 | 2.0 | 13.0 | 0.00 | 0.00 | 0.00 | 62 | 1012.1 |
| 20260831200033 | 80 | 63 | 5.0 | 11.0 | 0.00 | 0.00 | 0.00 | 65 | 1012.3 |
| 20260831194544 | 80 | 95 | 5.0 | 9.0 | 0.00 | 0.00 | 0.00 | 67 | 1012.1 |
| 20260831193019 | 80 | 79 | 2.0 | 8.0 | 0.00 | 0.00 | 0.00 | 69 | 1012.5 |
| 20260831191519 | 79 | 106 | 0.0 | 11.0 | 0.00 | 0.00 | 0.00 | 74 | 1012.5 |
| 20260831190015 | 78 | 98 | 3.0 | 10.0 | 0.00 | 0.00 | 0.00 | 71 | 1012.7 |
| 20260831184516 | 78 | 85 | 3.0 | 9.0 | 0.00 | 0.00 | 0.00 | 70 | 1012.5 |
| 20260831183008 | 78 | 101 | 2.0 | 9.0 | 0.00 | 0.00 | 0.00 | 74 | 1012.4 |
| 20260831181503 | 77 | 82 | 0.0 | 5.0 | 0.00 | 0.00 | 0.00 | 82 | 1012.4 |
| 20260831180002 | 76 | 96 | 0.0 | 4.0 | 0.00 | 0.00 | 0.00 | 84 | 1012.5 |
| 20260831174502 | 75 | 96 | 2.0 | 6.0 | 0.00 | 0.00 | 0.00 | 84 | 1012.7 |
| 20260831173029 | 75 | 85 | 0.0 | 4.0 | 0.00 | 0.00 | 0.00 | 86 | 1013.2 |
| 20260831171540 | 74 | 102 | 2.0 | 5.0 | 0.00 | 0.00 | 0.00 | 86 | 1012.9 |
| 20260831170055 | 74 | 58 | 1.0 | 7.0 | 0.00 | 0.00 | 0.00 | 88 | 1012.8 |
| 20260831164531 | 73 | 10 | 3.0 | 9.0 | 0.00 | 0.00 | 0.00 | 88 | 1012.5 |
| 20260831163020 | 0 | 0.0 | 0.0 | 0.00 | 0.00 | 0.00 | 1012.7 | ||
| 20260831161516 | 0 | 0.0 | 0.0 | 0.00 | 0.00 | 0.00 | 1012.8 | ||
| 20260831160018 | 0 | 0.0 | 0.0 | 0.00 | 0.00 | 0.00 | 1012.5 | ||
| 20260831154504 | 0 | 0.0 | 0.0 | 0.00 | 0.00 | 0.00 | 1013.0 | ||
| 20260831153102 | 0 | 0.0 | 0.0 | 0.00 | 0.00 | 0.00 | 1013.0 | ||
| 20260831151555 | 0 | 0.0 | 0.0 | 0.00 | 0.00 | 0.00 | 1013.0 | ||
| 20260831150048 | 0 | 0.0 | 0.0 | 0.00 | 0.00 | 0.00 | 1012.6 | ||
| 20260831144544 | 0 | 0.0 | 0.0 | 0.00 | 0.00 | 0.00 | 1012.3 | ||
| 20260831143042 | 0 | 0.0 | 0.0 | 0.00 | 0.00 | 0.00 | 1011.9 | ||
| 20260831141535 | 0 | 0.0 | 0.0 | 0.00 | 0.00 | 0.00 | 1011.6 | ||
| 20260831140002 | 0 | 0.0 | 0.0 | 0.00 | 0.00 | 0.00 | 1011.2 | ||
| 20260831134558 | 0 | 0.0 | 0.0 | 0.00 | 0.00 | 0.00 | 1010.7 | ||
| 20260831133054 | 0 | 0.0 | 0.0 | 0.00 | 0.00 | 0.00 | 1010.5 | ||
| 20260831131546 | 0 | 0.0 | 0.0 | 0.00 | 0.00 | 0.00 | 1010.0 | ||
| 20260831130043 | 0 | 0.0 | 0.0 | 0.00 | 0.00 | 0.00 | 1009.6 | ||
| 20260831124541 | 0 | 0.0 | 0.0 | 0.00 | 0.00 | 0.00 | 1009.5 | ||
| 20260831123032 | 0 | 0.0 | 0.0 | 0.00 | 0.00 | 0.00 | 1009.2 | ||
| 20260831121526 | 0 | 0.0 | 0.0 | 0.00 | 0.00 | 0.00 | 1008.9 | ||
| 20260831120028 | 0 | 0.0 | 0.0 | 0.00 | 0.00 | 0.00 | 1008.6 | ||
| 20260831114517 | 0 | 0.0 | 0.0 | 0.00 | 0.00 | 0.00 | 1008.5 | ||
| 20260831113013 | 0 | 0.0 | 0.0 | 0.00 | 0.00 | 0.00 | 1008.2 | ||
| 20260831111518 | 0 | 0.0 | 0.0 | 0.00 | 0.00 | 0.00 | 1008.1 | ||
| 20260831110004 | 0 | 0.0 | 0.0 | 0.00 | 0.00 | 0.00 | 1008.0 | ||
| 20260831104501 | 80 | 35 | 2.0 | 9.0 | 0.00 | 0.00 | 0.00 | 59 | 1007.8 |
| 20260831103000 | 80 | 351 | 0.0 | 7.0 | 0.00 | 0.00 | 0.00 | 60 | 1007.1 |
| 20260831101600 | 79 | 22 | 1.0 | 6.0 | 0.00 | 0.00 | 0.00 | 62 | 1007.1 |
| 20260831100057 | 79 | 110 | 2.0 | 12.0 | 0.00 | 0.00 | 0.00 | 62 | 1007.1 |
| 20260831094557 | 79 | 75 | 3.0 | 9.0 | 0.00 | 0.00 | 0.00 | 63 | 1007.0 |
| 20260831093058 | 79 | 108 | 4.0 | 12.0 | 0.00 | 0.00 | 0.00 | 61 | 1007.2 |
| 20260831091607 | 79 | 359 | 4.0 | 14.0 | 0.00 | 0.00 | 0.00 | 61 | 1007.3 |
| 20260831090101 | 79 | 14 | 6.0 | 15.0 | 0.00 | 0.00 | 0.00 | 63 | 1007.8 |
| 20260831084551 | 79 | 351 | 5.0 | 15.0 | 0.00 | 0.00 | 0.00 | 65 | 1007.6 |
| 20260831083048 | 79 | 90 | 5.0 | 15.0 | 0.00 | 0.00 | 0.00 | 66 | 1007.9 |
| 20260831081546 | 79 | 21 | 6.0 | 14.0 | 0.00 | 0.00 | 0.00 | 66 | 1007.9 |
| 20260831080055 | 80 | 132 | 9.0 | 15.0 | 0.00 | 0.00 | 0.00 | 64 | 1007.9 |
| 20260831074541 | 80 | 351 | 7.0 | 14.0 | 0.00 | 0.00 | 0.00 | 64 | 1008.0 |
| 20260831073039 | 81 | 14 | 5.0 | 13.0 | 0.00 | 0.00 | 0.00 | 64 | 1008.0 |
| 20260831071536 | 82 | 314 | 4.0 | 10.0 | 0.00 | 0.00 | 0.00 | 65 | 1007.9 |
| 20260831070036 | 81 | 8 | 2.0 | 11.0 | 0.00 | 0.00 | 0.00 | 64 | 1007.8 |
| 20260831064538 | 81 | 45 | 5.0 | 14.0 | 0.00 | 0.00 | 0.00 | 67 | 1007.6 |
| 20260831063034 | 80 | 2 | 4.0 | 9.0 | 0.00 | 0.00 | 0.00 | 70 | 1007.1 |
| 20260831061522 | 80 | 238 | 2.0 | 7.0 | 0.00 | 0.00 | 0.00 | 67 | 1007.0 |
| 20260831060018 | 81 | 245 | 1.0 | 8.0 | 0.00 | 0.00 | 0.00 | 62 | 1007.0 |
| 20260831054521 | 83 | 218 | 0.0 | 2.0 | 0.00 | 0.00 | 0.00 | 58 | 1007.0 |
| 20260831053021 | 82 | 252 | 0.0 | 6.0 | 0.00 | 0.00 | 0.00 | 59 | 1006.1 |
| 20260831051518 | 82 | 231 | 4.0 | 12.0 | 0.00 | 0.00 | 0.00 | 60 | 1006.4 |
| 20260831050014 | 84 | 225 | 3.0 | 18.0 | 0.00 | 0.00 | 0.00 | 57 | 1006.4 |
| 20260831044513 | 86 | 247 | 7.0 | 17.0 | 0.00 | 0.00 | 0.00 | 52 | 1006.4 |
| 20260831043006 | 88 | 172 | 5.0 | 17.0 | 0.00 | 0.00 | 0.00 | 47 | 1006.1 |
| 20260831041508 | 91 | 268 | 4.0 | 12.0 | 0.00 | 0.00 | 0.00 | 46 | 1006.0 |
| 20260831040059 | 93 | 291 | 2.0 | 14.0 | 0.00 | 0.00 | 0.00 | 41 | 1005.7 |
| 20260831034554 | 96 | 297 | 3.0 | 13.0 | 0.00 | 0.00 | 0.00 | 36 | 1005.4 |
| 20260831033057 | 96 | 264 | 0.0 | 0.0 | 0.00 | 0.00 | 0.00 | 35 | 1004.6 |
| 20260831031501 | 97 | 264 | 0.0 | 1.0 | 0.00 | 0.00 | 0.00 | 36 | 1004.6 |
| 20260831030115 | 97 | 264 | 0.0 | 0.0 | 0.00 | 0.00 | 0.00 | 35 | 1004.3 |
| 20260831024558 | 97 | 269 | 0.0 | 1.0 | 0.00 | 0.00 | 0.00 | 34 | 1004.2 |
| 20260831023056 | 97 | 241 | 0.0 | 2.0 | 0.00 | 0.00 | 0.00 | 34 | 1003.9 |
| 20260831021554 | 98 | 355 | 0.0 | 2.0 | 0.00 | 0.00 | 0.00 | 33 | 1003.6 |
| 20260831020051 | 99 | 35 | 0.0 | 1.0 | 0.00 | 0.00 | 0.00 | 32 | 1003.5 |
| 20260831014549 | 100 | 35 | 0.0 | 1.0 | 0.00 | 0.00 | 0.00 | 30 | 1003.0 |
| 20260831013048 | 101 | 356 | 0.0 | 3.0 | 0.00 | 0.00 | 0.00 | 30 | 1002.9 |
| 20260831011553 | 102 | 3 | 0.0 | 4.0 | 0.00 | 0.00 | 0.00 | 31 | 1002.9 |
| 20260831010044 | 102 | 79 | 0.0 | 3.0 | 0.00 | 0.00 | 0.00 | 29 | 1003.1 |
| 20260831004542 | 103 | 56 | 0.0 | 5.0 | 0.00 | 0.00 | 0.00 | 28 | 1003.2 |
| 20260831003047 | 104 | 244 | 0.0 | 2.0 | 0.00 | 0.00 | 0.00 | 29 | 1003.3 |
| 20260831001536 | 104 | 241 | 0.0 | 1.0 | 0.00 | 0.00 | 0.00 | 28 | 1003.2 |
| 20260831000037 | 105 | 226 | 0.0 | 3.0 | 0.00 | 0.00 | 0.00 | 28 | 1003.3 |
| 20260830234542 | 105 | 303 | 0.0 | 1.0 | 0.00 | 0.00 | 0.00 | 29 | 1003.4 |